| time (UTC) | temp C | wind direction | speed KPH | gust KPH | rain 1hr cm | rain 24hr cm | rain mn cm | humidity % | barometer mb |
| 20260510071504 | 21 | 226 | 4.8 | 4.8 | 0.00 | 0.00 | 0.00 | 71 | 1026.1 |
| 20260510071004 | 21 | 346 | 4.8 | 4.8 | 0.00 | 0.00 | 0.00 | 71 | 1025.7 |
| 20260510070505 | 21 | 248 | 1.6 | 3.2 | 0.00 | 0.00 | 0.00 | 70 | 1025.7 |
| 20260510070006 | 21 | 273 | 3.2 | 6.4 | 0.00 | 0.00 | 0.00 | 70 | 1025.7 |
| 20260510065504 | 21 | 209 | 3.2 | 3.2 | 0.00 | 0.00 | 0.00 | 70 | 1025.7 |
| 20260510065004 | 22 | 245 | 1.6 | 1.6 | 0.00 | 0.00 | 0.00 | 69 | 1025.7 |
| 20260510064504 | 22 | 25 | 4.8 | 8.0 | 0.00 | 0.00 | 0.00 | 69 | 1025.7 |
| 20260510064004 | 22 | 198 | 1.6 | 3.2 | 0.00 | 0.00 | 0.00 | 68 | 1025.7 |
| 20260510063023 | 22 | 254 | 3.2 | 3.2 | 0.00 | 0.00 | 0.00 | 68 | 1025.7 |
| 20260510062505 | 22 | 249 | 1.6 | 3.2 | 0.00 | 0.00 | 0.00 | 68 | 1025.7 |
| 20260510062004 | 22 | 215 | 3.2 | 4.8 | 0.00 | 0.00 | 0.00 | 67 | 1025.7 |
| 20260510061504 | 22 | 150 | 3.2 | 3.2 | 0.00 | 0.00 | 0.00 | 66 | 1025.7 |
| 20260510061004 | 22 | 302 | 1.6 | 3.2 | 0.00 | 0.00 | 0.00 | 65 | 1025.7 |
| 20260510060504 | 22 | 211 | 3.2 | 3.2 | 0.00 | 0.00 | 0.00 | 64 | 1025.7 |
| 20260510060004 | 23 | 284 | 1.6 | 3.2 | 0.00 | 0.00 | 0.00 | 64 | 1025.4 |
| 20260510055505 | 23 | 226 | 4.8 | 8.0 | 0.00 | 0.00 | 0.00 | 63 | 1025.4 |
| 20260510055005 | 23 | 77 | 6.4 | 6.4 | 0.00 | 0.00 | 0.00 | 63 | 1025.4 |
| 20260510054504 | 23 | 322 | 4.8 | 6.4 | 0.00 | 0.00 | 0.00 | 62 | 1025.4 |
| 20260510054005 | 23 | 261 | 3.2 | 6.4 | 0.00 | 0.00 | 0.00 | 63 | 1025.4 |
| 20260510053504 | 23 | 213 | 8.0 | 8.0 | 0.00 | 0.00 | 0.00 | 62 | 1025.4 |
| 20260510053006 | 23 | 247 | 4.8 | 4.8 | 0.00 | 0.00 | 0.00 | 62 | 1025.4 |
| 20260510052505 | 23 | 116 | 3.2 | 3.2 | 0.00 | 0.00 | 0.00 | 61 | 1025.4 |
| 20260510052004 | 23 | 261 | 3.2 | 4.8 | 0.00 | 0.00 | 0.00 | 61 | 1025.4 |
| 20260510051504 | 24 | 286 | 0.0 | 1.6 | 0.00 | 0.00 | 0.00 | 61 | 1025.4 |
| 20260510051004 | 24 | 252 | 4.8 | 4.8 | 0.00 | 0.00 | 0.00 | 60 | 1025.4 |
| 20260510050504 | 24 | 274 | 1.6 | 8.0 | 0.00 | 0.00 | 0.00 | 60 | 1025.4 |
| 20260510050004 | 24 | 139 | 3.2 | 4.8 | 0.00 | 0.00 | 0.00 | 60 | 1025.4 |
| 20260510045506 | 25 | 348 | 1.6 | 1.6 | 0.00 | 0.00 | 0.00 | 59 | 1025.4 |
| 20260510045004 | 24 | 335 | 4.8 | 8.0 | 0.00 | 0.00 | 0.00 | 59 | 1025.4 |
| 20260510044504 | 25 | 312 | 3.2 | 4.8 | 0.00 | 0.00 | 0.00 | 58 | 1025.4 |
| 20260510044005 | 25 | 180 | 3.2 | 3.2 | 0.00 | 0.00 | 0.00 | 58 | 1025.4 |
| 20260510043505 | 25 | 37 | 9.7 | 9.7 | 0.00 | 0.00 | 0.00 | 59 | 1025.4 |
| 20260510043004 | 25 | 201 | 6.4 | 6.4 | 0.00 | 0.00 | 0.00 | 58 | 1025.4 |
| 20260510042504 | 25 | 5 | 4.8 | 6.4 | 0.00 | 0.00 | 0.00 | 59 | 1025.4 |
| 20260510042004 | 25 | 91 | 6.4 | 6.4 | 0.00 | 0.00 | 0.00 | 58 | 1025.4 |
| 20260510041504 | 25 | 258 | 0.0 | 4.8 | 0.00 | 0.00 | 0.00 | 58 | 1025.4 |
| 20260510041004 | 25 | 313 | 0.0 | 1.6 | 0.00 | 0.00 | 0.00 | 57 | 1025.4 |
| 20260510040504 | 25 | 316 | 0.0 | 1.6 | 0.00 | 0.00 | 0.00 | 57 | 1025.4 |
| 20260510040004 | 26 | 169 | 3.2 | 3.2 | 0.00 | 0.00 | 0.00 | 56 | 1025.4 |
| 20260510035504 | 25 | 347 | 8.0 | 9.7 | 0.00 | 0.00 | 0.00 | 58 | 1025.4 |
| 20260510035004 | 25 | 245 | 4.8 | 6.4 | 0.00 | 0.00 | 0.00 | 58 | 1025.4 |
| 20260510034504 | 25 | 293 | 3.2 | 4.8 | 0.00 | 0.00 | 0.00 | 57 | 1025.4 |
| 20260510034005 | 25 | 123 | 6.4 | 6.4 | 0.00 | 0.00 | 0.00 | 57 | 1025.4 |
| 20260510033504 | 25 | 353 | 3.2 | 4.8 | 0.00 | 0.00 | 0.00 | 58 | 1025.4 |
| 20260510033004 | 25 | 240 | 1.6 | 1.6 | 0.00 | 0.00 | 0.00 | 58 | 1025.4 |
| 20260510032504 | 25 | 199 | 1.6 | 3.2 | 0.00 | 0.00 | 0.00 | 57 | 1025.4 |
| 20260510032005 | 25 | 255 | 4.8 | 4.8 | 0.00 | 0.00 | 0.00 | 57 | 1025.4 |
| 20260510031504 | 26 | 319 | 1.6 | 4.8 | 0.00 | 0.00 | 0.00 | 56 | 1025.4 |
| 20260510031005 | 25 | 116 | 3.2 | 4.8 | 0.00 | 0.00 | 0.00 | 57 | 1025.4 |
| 20260510030504 | 25 | 271 | 1.6 | 3.2 | 0.00 | 0.00 | 0.00 | 57 | 1025.4 |
| 20260510030005 | 25 | 287 | 8.0 | 8.0 | 0.00 | 0.00 | 0.00 | 59 | 1025.4 |
| 20260510025504 | 25 | 328 | 1.6 | 1.6 | 0.00 | 0.00 | 0.00 | 60 | 1025.4 |
| 20260510025004 | 25 | 216 | 4.8 | 4.8 | 0.00 | 0.00 | 0.00 | 59 | 1025.4 |
| 20260510024504 | 24 | 228 | 3.2 | 8.0 | 0.00 | 0.00 | 0.00 | 60 | 1025.7 |
| 20260510024004 | 25 | 258 | 3.2 | 4.8 | 0.00 | 0.00 | 0.00 | 60 | 1025.7 |
| 20260510023505 | 24 | 239 | 6.4 | 8.0 | 0.00 | 0.00 | 0.00 | 61 | 1025.7 |
| 20260510023004 | 25 | 270 | 3.2 | 3.2 | 0.00 | 0.00 | 0.00 | 60 | 1025.7 |
| 20260510022504 | 24 | 245 | 3.2 | 6.4 | 0.00 | 0.00 | 0.00 | 60 | 1025.7 |
| 20260510022004 | 24 | 216 | 3.2 | 8.0 | 0.00 | 0.00 | 0.00 | 60 | 1025.7 |
| 20260510021504 | 25 | 289 | 1.6 | 1.6 | 0.00 | 0.00 | 0.00 | 59 | 1025.7 |
| 20260510021004 | 25 | 272 | 4.8 | 4.8 | 0.00 | 0.00 | 0.00 | 57 | 1025.7 |
| 20260510020506 | 26 | 170 | 4.8 | 8.0 | 0.00 | 0.00 | 0.00 | 55 | 1025.7 |
| 20260510020005 | 25 | 319 | 3.2 | 3.2 | 0.00 | 0.00 | 0.00 | 57 | 1025.7 |
| 20260510015504 | 25 | 205 | 3.2 | 4.8 | 0.00 | 0.00 | 0.00 | 56 | 1025.7 |
| 20260510015004 | 26 | 309 | 1.6 | 3.2 | 0.00 | 0.00 | 0.00 | 55 | 1025.7 |
| 20260510014505 | 25 | 326 | 1.6 | 1.6 | 0.00 | 0.00 | 0.00 | 59 | 1026.4 |
| 20260510014004 | 26 | 248 | 3.2 | 6.4 | 0.00 | 0.00 | 0.00 | 55 | 1026.4 |
| 20260510013505 | 26 | 198 | 4.8 | 8.0 | 0.00 | 0.00 | 0.00 | 55 | 1026.4 |
| 20260510013004 | 26 | 318 | 4.8 | 4.8 | 0.00 | 0.00 | 0.00 | 56 | 1026.4 |
| 20260510012504 | 25 | 258 | 4.8 | 6.4 | 0.00 | 0.00 | 0.00 | 58 | 1026.8 |
| 20260510012005 | 26 | 12 | 0.0 | 0.0 | 0.00 | 0.00 | 0.00 | 58 | 1026.8 |
| 20260510011504 | 25 | 306 | 1.6 | 1.6 | 0.00 | 0.00 | 0.00 | 60 | 1026.8 |
| 20260510011004 | 23 | 259 | 6.4 | 8.0 | 0.00 | 0.00 | 0.00 | 60 | 1026.8 |
| 20260510010504 | 24 | 280 | 3.2 | 3.2 | 0.00 | 0.00 | 0.00 | 59 | 1026.8 |
| 20260510010005 | 24 | 288 | 1.6 | 4.8 | 0.00 | 0.00 | 0.00 | 58 | 1026.8 |
| 20260510005504 | 24 | 264 | 1.6 | 1.6 | 0.00 | 0.00 | 0.00 | 57 | 1026.8 |
| 20260510005004 | 25 | 295 | 0.0 | 1.6 | 0.00 | 0.00 | 0.00 | 56 | 1026.8 |
| 20260510004505 | 25 | 288 | 1.6 | 1.6 | 0.00 | 0.00 | 0.00 | 56 | 1027.4 |
| 20260510004004 | 25 | 293 | 1.6 | 4.8 | 0.00 | 0.00 | 0.00 | 56 | 1027.4 |
| 20260510003504 | 25 | 277 | 0.0 | 1.6 | 0.00 | 0.00 | 0.00 | 56 | 1027.4 |
| 20260510003004 | 25 | 297 | 1.6 | 1.6 | 0.00 | 0.00 | 0.00 | 56 | 1027.4 |
| 20260510002504 | 25 | 295 | 1.6 | 1.6 | 0.00 | 0.00 | 0.00 | 55 | 1027.8 |
| 20260510002005 | 23 | 290 | 1.6 | 3.2 | 0.00 | 0.00 | 0.00 | 57 | 1027.8 |
| 20260510001504 | 22 | 253 | 4.8 | 4.8 | 0.00 | 0.00 | 0.00 | 59 | 1027.8 |
| 20260510001005 | 23 | 245 | 1.6 | 1.6 | 0.00 | 0.00 | 0.00 | 58 | 1028.1 |
| 20260510000504 | 23 | 218 | 1.6 | 1.6 | 0.00 | 0.00 | 0.00 | 58 | 1028.1 |
| 20260510000005 | 23 | 300 | 1.6 | 1.6 | 0.00 | 0.00 | 0.00 | 59 | 1027.8 |
| 20260509235504 | 22 | 150 | 1.6 | 3.2 | 0.00 | 0.00 | 0.00 | 58 | 1027.8 |
| 20260509235004 | 23 | 292 | 3.2 | 3.2 | 0.00 | 0.00 | 0.00 | 56 | 1027.8 |
| 20260509234504 | 23 | 277 | 1.6 | 1.6 | 0.00 | 0.00 | 0.00 | 57 | 1027.8 |
| 20260509234004 | 22 | 287 | 1.6 | 3.2 | 0.00 | 0.00 | 0.00 | 59 | 1027.8 |
| 20260509233504 | 23 | 296 | 1.6 | 1.6 | 0.00 | 0.00 | 0.00 | 60 | 1027.8 |
| 20260509233004 | 21 | 295 | 1.6 | 1.6 | 0.00 | 0.00 | 0.00 | 62 | 1027.8 |
| 20260509232504 | 21 | 272 | 1.6 | 1.6 | 0.00 | 0.00 | 0.00 | 61 | 1027.4 |
| 20260509232004 | 20 | 292 | 3.2 | 3.2 | 0.00 | 0.00 | 0.00 | 64 | 1027.4 |
| 20260509231504 | 19 | 274 | 3.2 | 3.2 | 0.00 | 0.00 | 0.00 | 65 | 1027.4 |
| 20260509231004 | 20 | 249 | 3.2 | 3.2 | 0.00 | 0.00 | 0.00 | 64 | 1027.4 |
| 20260509230506 | 20 | 287 | 0.0 | 1.6 | 0.00 | 0.00 | 0.00 | 64 | 1027.4 |
| 20260509230004 | 19 | 283 | 1.6 | 1.6 | 0.00 | 0.00 | 0.00 | 65 | 1027.4 |
| 20260509225504 | 18 | 270 | 3.2 | 4.8 | 0.00 | 0.00 | 0.00 | 66 | 1027.4 |
| 20260509225004 | 18 | 292 | 1.6 | 1.6 | 0.00 | 0.00 | 0.00 | 66 | 1027.4 |
| 20260509224505 | 18 | 273 | 3.2 | 3.2 | 0.00 | 0.00 | 0.00 | 68 | 1027.4 |
| 20260509224004 | 18 | 305 | 1.6 | 1.6 | 0.00 | 0.00 | 0.00 | 69 | 1027.4 |
| 20260509223505 | 17 | 291 | 3.2 | 4.8 | 0.00 | 0.00 | 0.00 | 69 | 1026.8 |
| 20260509223006 | 17 | 292 | 0.0 | 1.6 | 0.00 | 0.00 | 0.00 | 70 | 1026.8 |
| 20260509222504 | 17 | 289 | 0.0 | 0.0 | 0.00 | 0.00 | 0.00 | 73 | 1026.4 |
| 20260509222004 | 16 | 288 | 0.0 | 1.6 | 0.00 | 0.00 | 0.00 | 73 | 1026.4 |
| 20260509221504 | 16 | 274 | 1.6 | 1.6 | 0.00 | 0.00 | 0.00 | 74 | 1026.4 |
| 20260509221004 | 15 | 281 | 3.2 | 4.8 | 0.00 | 0.00 | 0.00 | 75 | 1026.8 |
| 20260509220504 | 15 | 273 | 1.6 | 3.2 | 0.00 | 0.00 | 0.00 | 77 | 1026.8 |
| 20260509220004 | 15 | 278 | 1.6 | 1.6 | 0.00 | 0.00 | 0.00 | 78 | 1026.8 |
| 20260509215504 | 14 | 277 | 3.2 | 3.2 | 0.00 | 0.00 | 0.00 | 78 | 1026.8 |
| 20260509215004 | 14 | 275 | 1.6 | 3.2 | 0.00 | 0.00 | 0.00 | 79 | 1026.8 |
| 20260509214504 | 13 | 267 | 1.6 | 1.6 | 0.00 | 0.00 | 0.00 | 80 | 1026.8 |
| 20260509214004 | 13 | 260 | 3.2 | 4.8 | 0.00 | 0.00 | 0.00 | 81 | 1026.8 |
| 20260509213504 | 13 | 281 | 3.2 | 3.2 | 0.00 | 0.00 | 0.00 | 82 | 1026.4 |
| 20260509213005 | 13 | 275 | 1.6 | 1.6 | 0.00 | 0.00 | 0.00 | 83 | 1026.4 |
| 20260509212505 | 13 | 273 | 1.6 | 1.6 | 0.00 | 0.00 | 0.00 | 84 | 1026.4 |
| 20260509212005 | 12 | 291 | 1.6 | 1.6 | 0.00 | 0.00 | 0.00 | 85 | 1026.4 |
| 20260509211504 | 12 | 283 | 0.0 | 0.0 | 0.00 | 0.00 | 0.00 | 87 | 1026.4 |
| 20260509211004 | 12 | 288 | 0.0 | 1.6 | 0.00 | 0.00 | 0.00 | 88 | 1025.7 |
| 20260509210504 | 12 | 299 | 0.0 | 0.0 | 0.00 | 0.00 | 0.00 | 88 | 1025.7 |
| 20260509210004 | 11 | 246 | 0.0 | 0.0 | 0.00 | 0.00 | 0.00 | 90 | 1025.7 |
| 20260509205504 | 11 | 276 | 0.0 | 0.0 | 0.00 | 0.00 | 0.00 | 90 | 1025.7 |
| 20260509205005 | 11 | 276 | 0.0 | 0.0 | 0.00 | 0.00 | 0.00 | 90 | 1025.7 |
| 20260509204504 | 11 | 276 | 0.0 | 0.0 | 0.00 | 0.00 | 0.00 | 90 | 1025.7 |
| 20260509204005 | 11 | 277 | 0.0 | 0.0 | 0.00 | 0.00 | 0.00 | 90 | 1025.7 |
| 20260509203504 | 11 | 316 | 1.6 | 1.6 | 0.00 | 0.00 | 0.00 | 89 | 1025.7 |
| 20260509203004 | 11 | 247 | 1.6 | 1.6 | 0.00 | 0.00 | 0.00 | 90 | 1025.7 |
| 20260509202504 | 11 | 250 | 0.0 | 1.6 | 0.00 | 0.00 | 0.00 | 90 | 1025.7 |
| 20260509202004 | 11 | 250 | 0.0 | 0.0 | 0.00 | 0.00 | 0.00 | 90 | 1025.7 |
| 20260509201504 | 11 | 249 | 0.0 | 0.0 | 0.00 | 0.00 | 0.00 | 91 | 1025.7 |
| 20260509201004 | 11 | 250 | 0.0 | 0.0 | 0.00 | 0.00 | 0.00 | 91 | 1025.7 |
| 20260509200506 | 11 | 249 | 0.0 | 0.0 | 0.00 | 0.00 | 0.00 | 91 | 1025.7 |
| 20260509200004 | 11 | 250 | 0.0 | 0.0 | 0.00 | 0.00 | 0.00 | 91 | 1025.7 |
| 20260509195504 | 11 | 250 | 0.0 | 0.0 | 0.00 | 0.00 | 0.00 | 91 | 1025.7 |
| 20260509195004 | 11 | 250 | 0.0 | 0.0 | 0.00 | 0.00 | 0.00 | 92 | 1025.7 |
| 20260509194508 | 11 | 250 | 0.0 | 0.0 | 0.00 | 0.00 | 0.00 | 91 | 1025.4 |
| 20260509194004 | 11 | 250 | 0.0 | 0.0 | 0.00 | 0.00 | 0.00 | 91 | 1025.4 |
| 20260509193504 | 11 | 250 | 0.0 | 0.0 | 0.00 | 0.00 | 0.00 | 90 | 1025.4 |
| 20260509193004 | 11 | 250 | 0.0 | 0.0 | 0.00 | 0.00 | 0.00 | 89 | 1025.4 |
| 20260509192504 | 11 | 250 | 0.0 | 0.0 | 0.00 | 0.00 | 0.00 | 88 | 1025.1 |
| 20260509192004 | 12 | 250 | 1.6 | 1.6 | 0.00 | 0.00 | 0.00 | 87 | 1025.1 |
| 20260509191504 | 12 | 248 | 1.6 | 1.6 | 0.00 | 0.00 | 0.00 | 86 | 1025.1 |
| 20260509191005 | 12 | 252 | 1.6 | 1.6 | 0.00 | 0.00 | 0.00 | 86 | 1025.1 |
| 20260509190505 | 12 | 255 | 0.0 | 0.0 | 0.00 | 0.00 | 0.00 | 86 | 1025.1 |
| 20260509190006 | 12 | 243 | 1.6 | 1.6 | 0.00 | 0.00 | 0.00 | 86 | 1025.1 |
| 20260509185504 | 12 | 265 | 1.6 | 3.2 | 0.00 | 0.00 | 0.00 | 86 | 1025.1 |
| 20260509185004 | 12 | 267 | 0.0 | 1.6 | 0.00 | 0.00 | 0.00 | 86 | 1025.1 |
| 20260509184504 | 12 | 274 | 0.0 | 0.0 | 0.00 | 0.00 | 0.00 | 86 | 1025.1 |
| 20260509184006 | 12 | 274 | 0.0 | 0.0 | 0.00 | 0.00 | 0.00 | 86 | 1025.1 |
| 20260509183505 | 12 | 273 | 0.0 | 1.6 | 0.00 | 0.00 | 0.00 | 85 | 1025.4 |
| 20260509183004 | 12 | 270 | 0.0 | 1.6 | 0.00 | 0.00 | 0.00 | 86 | 1025.4 |
| 20260509182504 | 12 | 270 | 0.0 | 1.6 | 0.00 | 0.00 | 0.00 | 88 | 1025.1 |
| 20260509182005 | 12 | 270 | 0.0 | 0.0 | 0.00 | 0.00 | 0.00 | 89 | 1025.1 |
| 20260509181504 | 12 | 270 | 0.0 | 0.0 | 0.00 | 0.00 | 0.00 | 90 | 1025.1 |
| 20260509181006 | 11 | 270 | 0.0 | 0.0 | 0.00 | 0.00 | 0.00 | 90 | 1025.1 |
| 20260509180504 | 11 | 264 | 0.0 | 0.0 | 0.00 | 0.00 | 0.00 | 90 | 1025.1 |
| 20260509180004 | 11 | 264 | 0.0 | 0.0 | 0.00 | 0.00 | 0.00 | 90 | 1024.7 |
| 20260509175504 | 11 | 264 | 1.6 | 1.6 | 0.00 | 0.00 | 0.00 | 90 | 1024.7 |
| 20260509175004 | 11 | 264 | 1.6 | 1.6 | 0.00 | 0.00 | 0.00 | 90 | 1024.7 |
| 20260509174505 | 11 | 285 | 0.0 | 1.6 | 0.00 | 0.00 | 0.00 | 92 | 1024.7 |
| 20260509174004 | 11 | 259 | 0.0 | 0.0 | 0.00 | 0.00 | 0.00 | 93 | 1024.7 |
| 20260509173504 | 11 | 259 | 1.6 | 1.6 | 0.00 | 0.00 | 0.00 | 93 | 1024.7 |
| 20260509173005 | 11 | 259 | 0.0 | 1.6 | 0.00 | 0.00 | 0.00 | 92 | 1024.7 |
| 20260509172505 | 11 | 256 | 0.0 | 1.6 | 0.00 | 0.00 | 0.00 | 92 | 1024.7 |
| 20260509172004 | 11 | 259 | 1.6 | 1.6 | 0.00 | 0.00 | 0.00 | 92 | 1024.7 |
| 20260509171504 | 11 | 260 | 1.6 | 1.6 | 0.00 | 0.00 | 0.00 | 92 | 1024.7 |
| 20260509171005 | 11 | 260 | 0.0 | 0.0 | 0.00 | 0.00 | 0.00 | 92 | 1024.7 |
| 20260509170505 | 11 | 258 | 0.0 | 1.6 | 0.00 | 0.00 | 0.00 | 93 | 1024.7 |
| 20260509170005 | 11 | 262 | 0.0 | 0.0 | 0.00 | 0.00 | 0.00 | 94 | 1025.1 |
| 20260509165505 | 11 | 262 | 0.0 | 0.0 | 0.00 | 0.00 | 0.00 | 94 | 1025.1 |
| 20260509165005 | 11 | 262 | 1.6 | 1.6 | 0.00 | 0.00 | 0.00 | 95 | 1025.1 |
| 20260509164505 | 10 | 263 | 0.0 | 1.6 | 0.00 | 0.00 | 0.00 | 95 | 1025.1 |
| 20260509164004 | 10 | 263 | 0.0 | 0.0 | 0.00 | 0.00 | 0.00 | 96 | 1025.1 |
| 20260509163504 | 10 | 263 | 0.0 | 0.0 | 0.00 | 0.00 | 0.00 | 95 | 1025.1 |
| 20260509163004 | 10 | 263 | 0.0 | 0.0 | 0.00 | 0.00 | 0.00 | 96 | 1025.1 |
| 20260509162504 | 10 | 263 | 1.6 | 1.6 | 0.00 | 0.00 | 0.00 | 96 | 1025.1 |
| 20260509162004 | 10 | 263 | 0.0 | 0.0 | 0.00 | 0.00 | 0.00 | 96 | 1025.1 |
| 20260509161504 | 10 | 263 | 0.0 | 0.0 | 0.00 | 0.00 | 0.00 | 96 | 1025.1 |
| 20260509161005 | 10 | 263 | 0.0 | 0.0 | 0.00 | 0.00 | 0.00 | 97 | 1024.7 |
| 20260509160504 | 10 | 263 | 0.0 | 0.0 | 0.00 | 0.00 | 0.00 | 97 | 1024.7 |
| 20260509160004 | 10 | 263 | 0.0 | 0.0 | 0.00 | 0.00 | 0.00 | 96 | 1024.7 |
| 20260509155504 | 10 | 263 | 0.0 | 0.0 | 0.00 | 0.00 | 0.00 | 96 | 1024.7 |
| 20260509155004 | 10 | 263 | 0.0 | 0.0 | 0.00 | 0.00 | 0.00 | 95 | 1024.7 |
| 20260509154504 | 10 | 263 | 1.6 | 1.6 | 0.00 | 0.00 | 0.00 | 96 | 1024.7 |
| 20260509154006 | 10 | 263 | 1.6 | 1.6 | 0.00 | 0.00 | 0.00 | 96 | 1024.7 |
| 20260509153504 | 10 | 263 | 0.0 | 0.0 | 0.00 | 0.00 | 0.00 | 95 | 1024.7 |
| 20260509153004 | 10 | 263 | 0.0 | 0.0 | 0.00 | 0.00 | 0.00 | 95 | 1024.7 |
| 20260509152504 | 10 | 263 | 0.0 | 0.0 | 0.00 | 0.00 | 0.00 | 95 | 1025.1 |
| 20260509152005 | 10 | 263 | 0.0 | 0.0 | 0.00 | 0.00 | 0.00 | 95 | 1025.1 |
| 20260509151504 | 11 | 263 | 0.0 | 0.0 | 0.00 | 0.00 | 0.00 | 95 | 1025.1 |
| 20260509151005 | 11 | 263 | 0.0 | 1.6 | 0.00 | 0.00 | 0.00 | 95 | 1025.1 |
| 20260509150504 | 11 | 263 | 0.0 | 0.0 | 0.00 | 0.00 | 0.00 | 95 | 1025.1 |
| 20260509150005 | 11 | 263 | 0.0 | 0.0 | 0.00 | 0.00 | 0.00 | 94 | 1025.1 |
| 20260509145505 | 11 | 263 | 0.0 | 0.0 | 0.00 | 0.00 | 0.00 | 94 | 1025.1 |
| 20260509145004 | 11 | 263 | 0.0 | 0.0 | 0.00 | 0.00 | 0.00 | 94 | 1025.1 |
| 20260509144504 | 11 | 253 | 0.0 | 1.6 | 0.00 | 0.00 | 0.00 | 93 | 1025.1 |
| 20260509144004 | 11 | 268 | 0.0 | 1.6 | 0.00 | 0.00 | 0.00 | 93 | 1025.1 |
| 20260509143505 | 11 | 279 | 0.0 | 0.0 | 0.00 | 0.00 | 0.00 | 94 | 1025.1 |
| 20260509143004 | 11 | 271 | 0.0 | 1.6 | 0.00 | 0.00 | 0.00 | 93 | 1025.1 |
| 20260509142505 | 11 | 262 | 1.6 | 1.6 | 0.00 | 0.00 | 0.00 | 93 | 1025.4 |
| 20260509142005 | 12 | 274 | 1.6 | 1.6 | 0.00 | 0.00 | 0.00 | 93 | 1025.4 |
| 20260509141504 | 12 | 278 | 0.0 | 0.0 | 0.00 | 0.00 | 0.00 | 93 | 1025.4 |
| 20260509141004 | 12 | 278 | 0.0 | 0.0 | 0.00 | 0.00 | 0.00 | 94 | 1025.1 |
| 20260509140504 | 12 | 278 | 0.0 | 0.0 | 0.00 | 0.00 | 0.00 | 94 | 1025.1 |
| 20260509140005 | 12 | 278 | 0.0 | 0.0 | 0.00 | 0.00 | 0.00 | 93 | 1025.1 |
| 20260509135505 | 12 | 278 | 0.0 | 0.0 | 0.00 | 0.00 | 0.00 | 93 | 1025.1 |
| 20260509135004 | 12 | 278 | 0.0 | 0.0 | 0.00 | 0.00 | 0.00 | 92 | 1025.1 |
| 20260509134024 | 12 | 278 | 0.0 | 0.0 | 0.00 | 0.00 | 0.00 | 90 | 1025.4 |
| 20260509133504 | 12 | 278 | 0.0 | 0.0 | 0.00 | 0.00 | 0.00 | 88 | 1025.4 |
| 20260509133006 | 13 | 277 | 1.6 | 1.6 | 0.00 | 0.00 | 0.00 | 87 | 1025.4 |
| 20260509132504 | 13 | 250 | 0.0 | 0.0 | 0.00 | 0.00 | 0.00 | 86 | 1025.4 |
| 20260509132004 | 13 | 250 | 1.6 | 1.6 | 0.00 | 0.00 | 0.00 | 87 | 1025.4 |
| 20260509131504 | 13 | 250 | 1.6 | 1.6 | 0.00 | 0.00 | 0.00 | 87 | 1025.4 |
| 20260509131004 | 13 | 244 | 1.6 | 3.2 | 0.00 | 0.00 | 0.00 | 87 | 1025.4 |
| 20260509130504 | 13 | 234 | 1.6 | 3.2 | 0.00 | 0.00 | 0.00 | 87 | 1025.4 |
| 20260509130005 | 13 | 250 | 1.6 | 1.6 | 0.00 | 0.00 | 0.00 | 88 | 1025.4 |
| 20260509125504 | 13 | 250 | 1.6 | 1.6 | 0.00 | 0.00 | 0.00 | 90 | 1025.4 |
| 20260509125005 | 12 | 250 | 0.0 | 0.0 | 0.00 | 0.00 | 0.00 | 90 | 1025.4 |
| 20260509124505 | 13 | 250 | 0.0 | 0.0 | 0.00 | 0.00 | 0.00 | 89 | 1025.4 |
| 20260509124004 | 13 | 250 | 0.0 | 0.0 | 0.00 | 0.00 | 0.00 | 89 | 1025.4 |
| 20260509123504 | 13 | 250 | 0.0 | 0.0 | 0.00 | 0.00 | 0.00 | 87 | 1025.4 |
| 20260509123004 | 13 | 250 | 0.0 | 0.0 | 0.00 | 0.00 | 0.00 | 87 | 1025.4 |
| 20260509122504 | 13 | 250 | 0.0 | 1.6 | 0.00 | 0.00 | 0.00 | 86 | 1025.4 |
| 20260509122004 | 14 | 250 | 1.6 | 1.6 | 0.00 | 0.00 | 0.00 | 86 | 1025.4 |
| 20260509121505 | 13 | 250 | 1.6 | 1.6 | 0.00 | 0.00 | 0.00 | 86 | 1025.4 |
| 20260509121004 | 13 | 250 | 0.0 | 0.0 | 0.00 | 0.00 | 0.00 | 87 | 1025.4 |
| 20260509120504 | 13 | 250 | 0.0 | 0.0 | 0.00 | 0.00 | 0.00 | 88 | 1025.4 |
| 20260509120005 | 13 | 250 | 0.0 | 0.0 | 0.00 | 0.00 | 0.00 | 87 | 1025.4 |
| 20260509115504 | 13 | 250 | 0.0 | 0.0 | 0.00 | 0.00 | 0.00 | 86 | 1025.4 |
| 20260509115004 | 13 | 250 | 1.6 | 1.6 | 0.00 | 0.00 | 0.00 | 86 | 1025.4 |
| 20260509114511 | 13 | 250 | 1.6 | 1.6 | 0.00 | 0.00 | 0.00 | 86 | 1025.4 |
| 20260509114004 | 13 | 250 | 0.0 | 0.0 | 0.00 | 0.00 | 0.00 | 86 | 1025.4 |
| 20260509113504 | 14 | 246 | 0.0 | 0.0 | 0.00 | 0.00 | 0.00 | 85 | 1025.4 |
| 20260509113005 | 14 | 246 | 0.0 | 0.0 | 0.00 | 0.00 | 0.00 | 84 | 1025.4 |
| 20260509112505 | 14 | 246 | 0.0 | 0.0 | 0.00 | 0.00 | 0.00 | 84 | 1025.4 |
| 20260509112004 | 14 | 246 | 0.0 | 1.6 | 0.00 | 0.00 | 0.00 | 83 | 1025.4 |
| 20260509111504 | 14 | 246 | 0.0 | 0.0 | 0.00 | 0.00 | 0.00 | 82 | 1025.4 |
| 20260509111004 | 15 | 246 | 1.6 | 1.6 | 0.00 | 0.00 | 0.00 | 82 | 1025.4 |
| 20260509110504 | 14 | 246 | 0.0 | 0.0 | 0.00 | 0.00 | 0.00 | 84 | 1025.4 |
| 20260509110004 | 14 | 246 | 0.0 | 0.0 | 0.00 | 0.00 | 0.00 | 83 | 1025.4 |
| 20260509105504 | 15 | 246 | 0.0 | 0.0 | 0.00 | 0.00 | 0.00 | 82 | 1025.4 |
| 20260509105004 | 15 | 246 | 1.6 | 1.6 | 0.00 | 0.00 | 0.00 | 81 | 1025.4 |
| 20260509104504 | 15 | 246 | 0.0 | 0.0 | 0.00 | 0.00 | 0.00 | 80 | 1025.4 |
| 20260509104004 | 15 | 246 | 0.0 | 0.0 | 0.00 | 0.00 | 0.00 | 80 | 1025.4 |
| 20260509103504 | 15 | 246 | 1.6 | 1.6 | 0.00 | 0.00 | 0.00 | 79 | 1025.4 |
| 20260509103004 | 15 | 246 | 1.6 | 1.6 | 0.00 | 0.00 | 0.00 | 79 | 1025.4 |
| 20260509102504 | 15 | 250 | 1.6 | 1.6 | 0.00 | 0.00 | 0.00 | 80 | 1025.1 |
| 20260509102004 | 15 | 252 | 1.6 | 1.6 | 0.00 | 0.00 | 0.00 | 79 | 1025.1 |
| 20260509101505 | 15 | 252 | 0.0 | 1.6 | 0.00 | 0.00 | 0.00 | 79 | 1025.1 |
| 20260509101004 | 15 | 253 | 0.0 | 0.0 | 0.00 | 0.00 | 0.00 | 79 | 1025.1 |
| 20260509100505 | 15 | 252 | 0.0 | 0.0 | 0.00 | 0.00 | 0.00 | 78 | 1025.1 |
| 20260509100006 | 15 | 252 | 0.0 | 1.6 | 0.00 | 0.00 | 0.00 | 77 | 1024.7 |
| 20260509095504 | 16 | 253 | 0.0 | 0.0 | 0.00 | 0.00 | 0.00 | 77 | 1024.7 |
| 20260509094517 | 16 | 253 | 1.6 | 1.6 | 0.00 | 0.00 | 0.00 | 75 | 1024.7 |
| 20260509094005 | 16 | 253 | 1.6 | 3.2 | 0.00 | 0.00 | 0.00 | 74 | 1024.7 |
| 20260509093504 | 16 | 252 | 1.6 | 3.2 | 0.00 | 0.00 | 0.00 | 73 | 1024.4 |
| 20260509093005 | 16 | 248 | 1.6 | 1.6 | 0.00 | 0.00 | 0.00 | 74 | 1024.4 |
| 20260509092505 | 16 | 253 | 1.6 | 1.6 | 0.00 | 0.00 | 0.00 | 73 | 1024.4 |
| 20260509092004 | 16 | 260 | 1.6 | 1.6 | 0.00 | 0.00 | 0.00 | 73 | 1024.4 |
| 20260509091504 | 16 | 258 | 1.6 | 1.6 | 0.00 | 0.00 | 0.00 | 73 | 1024.4 |
| 20260509091005 | 16 | 256 | 0.0 | 1.6 | 0.00 | 0.00 | 0.00 | 72 | 1024.4 |
| 20260509090504 | 16 | 261 | 0.0 | 0.0 | 0.00 | 0.00 | 0.00 | 71 | 1024.4 |
| 20260509090004 | 16 | 265 | 1.6 | 1.6 | 0.00 | 0.00 | 0.00 | 71 | 1023.7 |
| 20260509085504 | 16 | 270 | 1.6 | 1.6 | 0.00 | 0.00 | 0.00 | 71 | 1023.7 |
| 20260509085004 | 16 | 282 | 1.6 | 3.2 | 0.00 | 0.00 | 0.00 | 71 | 1023.7 |
| 20260509084504 | 16 | 297 | 1.6 | 1.6 | 0.00 | 0.00 | 0.00 | 70 | 1023.7 |
| 20260509084005 | 17 | 280 | 1.6 | 1.6 | 0.00 | 0.00 | 0.00 | 69 | 1023.7 |
| 20260509083504 | 17 | 293 | 1.6 | 3.2 | 0.00 | 0.00 | 0.00 | 69 | 1023.7 |
| 20260509083004 | 17 | 305 | 1.6 | 1.6 | 0.00 | 0.00 | 0.00 | 68 | 1023.7 |
| 20260509082504 | 17 | 297 | 1.6 | 1.6 | 0.00 | 0.00 | 0.00 | 68 | 1023.4 |
| 20260509082004 | 17 | 322 | 1.6 | 1.6 | 0.00 | 0.00 | 0.00 | 67 | 1023.4 |
| 20260509081504 | 17 | 295 | 0.0 | 1.6 | 0.00 | 0.00 | 0.00 | 67 | 1023.4 |
| 20260509081004 | 17 | 282 | 0.0 | 1.6 | 0.00 | 0.00 | 0.00 | 66 | 1023.4 |
| 20260509080504 | 17 | 320 | 1.6 | 1.6 | 0.00 | 0.00 | 0.00 | 66 | 1023.4 |
| 20260509080005 | 18 | 321 | 1.6 | 1.6 | 0.00 | 0.00 | 0.00 | 64 | 1023.4 |
| 20260509075509 | 18 | 320 | 0.0 | 0.0 | 0.00 | 0.00 | 0.00 | 65 | 1023.4 |
| 20260509075005 | 18 | 322 | 1.6 | 1.6 | 0.00 | 0.00 | 0.00 | 64 | 1023.4 |
| 20260509074504 | 18 | 324 | 1.6 | 1.6 | 0.00 | 0.00 | 0.00 | 63 | 1023.0 |
| 20260509074005 | 18 | 325 | 0.0 | 1.6 | 0.00 | 0.00 | 0.00 | 62 | 1023.0 |
| 20260509073504 | 19 | 325 | 1.6 | 1.6 | 0.00 | 0.00 | 0.00 | 61 | 1023.0 |
| 20260509073004 | 19 | 327 | 1.6 | 1.6 | 0.00 | 0.00 | 0.00 | 59 | 1023.0 |
| 20260509072504 | 20 | 322 | 1.6 | 1.6 | 0.00 | 0.00 | 0.00 | 58 | 1022.7 |
| 20260509072004 | 20 | 326 | 0.0 | 0.0 | 0.00 | 0.00 | 0.00 | 56 | 1022.7 |